Hourly Data Report for May 14, 2020

STE-ANNE-DE-BELLEVUE 1
QUEBEC
Current Station Operator: ECCC - MSC

45°25'38.000" N
73°55'45.000" W
39.00 m
702FHL8
71377
WVQ

Download Data

Hourly Data (May 2020)
Hourly Data Report for May 14, 2020
TIME
LST
Temp Definition
°C
Dew Point Definition
°C
Rel Hum Definition
%
Precip. Amount Definition
mm

Wind Dir Definition
10's deg

Wind Spd Definition
km/h
Visibility Definition
km
Stn Press Definition
kPa
Hmdx Definition


Wind Chill Definition


Weather Definition


00:00 7.0 -2.6 50 0.0 25 15   101.96     LegendNANA
01:00 5.6 -3.0 54 0.0 25 13   101.96     LegendNANA
02:00 5.0 -3.1 56 0.0 24 12   101.94     LegendNANA
03:00 4.8 -3.2 56 0.0 24 14   101.96     LegendNANA
04:00 4.2 -3.5 57 0.0 24 8   101.97     LegendNANA
05:00 4.0 -3.4 59 0.0 24 9   101.96     LegendNANA
06:00 5.4 -2.3 58 0.0 24 12   102.00     LegendNANA
07:00 6.8 -2.5 52 0.0 24 13   102.01     LegendNANA
08:00 9.1 -2.3 45 0.0 25 12   101.97     LegendNANA
09:00 12.4 -1.5 38 0.0 25 12   101.92     LegendNANA
10:00 13.9 -3.4 30 0.0 24 12   101.85     LegendNANA
11:00 15.5 -5.0 24 0.0 23 8   101.77     LegendNANA
12:00 16.8 -5.9 21 0.0 24 10   101.65     LegendNANA
13:00 17.2 -6.6 19 0.0 24 13   101.55     LegendNANA
14:00 17.6 -8.3 16 0.0 21 11   101.44     LegendNANA
15:00 17.6 -7.4 17 0.0 25 15   101.37     LegendNANA
16:00 17.5 -6.3 19 0.0 25 13   101.29     LegendNANA
17:00 17.0 -4.6 22 0.0 27 9   101.25     LegendNANA
18:00 16.3 -4.7 23 0.0 28 6   101.18     LegendNANA
19:00 16.0 -5.1 23 0.0 18 4   101.14     LegendNANA
20:00 14.4 -3.6 29 0.0 16 2   101.12     LegendNANA
21:00 13.2 -2.7 33 0.0   0   101.09     LegendNANA
22:00 12.5 -2.3 36 0.0   0   101.02     LegendNANA
23:00 12.5 -0.2 42 0.0 12 3   100.97     LegendNANA

Notes on Data Quality.

Legend

  • E = Estimated
  • M = Missing
  • NA = Not Available*
  • [empty] = Indicates an unobserved value
Date modified: